Weather History for Miles City, MT

Change the Weather History Date:

Wednesday, June 26, 2013

  Actual Average Record
Temperature  
Mean Temperature 71 °F 69 °F  
Max Temperature 85 °F 83 °F 111 °F (2012)
Min Temperature 57 °F 56 °F 40 °F (1950)
Degree Days  
Heating Degree Days 0 1  
Month to date heating degree days 59 84  
Since 1 June heating degree days 59 84  
Since 1 July heating degree days 7147 7633  
Cooling Degree Days 6 5  
Month to date cooling degree days 62 83  
Year to date cooling degree days 75 103  
Since 1 June cooling degree days 62 83  
Growing Degree Days 20 (Base 50)    
Moisture  
Dew Point 52 °F    
Average Humidity 57    
Maximum Humidity 87    
Minimum Humidity 27    
Precipitation  
Precipitation T in 0.06 in 2.08 in (2014)
Month to date precipitation 2.51 2.25  
Year to date precipitation 11.03 6.95  
Sea Level Pressure  
Sea Level Pressure 29.85 in    
Wind  
Wind Speed 8 mph (WNW)    
Max Wind Speed 22 mph    
Max Gust Speed 28 mph    
Visibility 10 miles    
Events Rain    
T = Trace of Precipitation, MM = Missing Value Source: NWS Daily Summary

Daily Weather History Graph

Daily Weather History Graph

Search for Another Location

Airport:

Trip Planner

Search our weather history database for the weather conditions in past years. The results will help you decide how hot, cold, wet, or windy it might be!

Date:

Astronomy

Jun. 26, 2013 Rise Set
Actual Time 5:12 AM MDT 9:00 PM MDT
Civil Twilight 4:33 AM MDT 9:39 PM MDT
Nautical Twilight 3:40 AM MDT 10:32 PM MDT
Astronomical Twilight 2:24 AM MDT 11:47 PM MDT
Moon 11:08 PM MDT (6/26) 9:21 AM MDT (6/26)
Length of Visible Light 17h 05m
Length of Day
15h 47m
Waning Gibbous, 85% of the Moon is Illuminated
Jun 26
Waning Gibbous
Jun 29
Last Quarter
Jul 8
New
Jul 15
First Quarter
Jul 22
Full

Hourly Weather History & Observations

Time (MDT) Temp. Dew Point Humidity Pressure Visibility Wind Dir Wind Speed Gust Speed Precip Events Conditions
12:53 AM 66.0 °F 53.1 °F 63% 29.74 in 10.0 mi Calm Calm - N/A   Clear
1:53 AM 64.9 °F 54.0 °F 68% 29.74 in 10.0 mi ESE 4.6 mph - N/A   Partly Cloudy
2:53 AM 64.0 °F 53.1 °F 67% 29.73 in 10.0 mi NNE 4.6 mph - N/A   Scattered Clouds
3:53 AM 63.0 °F 53.1 °F 70% 29.75 in 10.0 mi Calm Calm - N/A   Clear
4:53 AM 59.0 °F 55.0 °F 87% 29.78 in 10.0 mi NW 3.5 mph - N/A   Clear
5:53 AM 57.9 °F 54.0 °F 87% 29.79 in 10.0 mi South 3.5 mph - N/A   Clear
6:53 AM 64.0 °F 55.9 °F 75% 29.80 in 10.0 mi SW 6.9 mph - N/A   Clear
7:53 AM 68.0 °F 55.0 °F 63% 29.81 in 10.0 mi West 11.5 mph - N/A   Clear
8:53 AM 69.1 °F 55.9 °F 63% 29.84 in 10.0 mi NW 5.8 mph - N/A   Clear
9:53 AM 73.0 °F 57.0 °F 57% 29.86 in 10.0 mi WNW 10.4 mph - 0.00 in   Clear
10:53 AM 78.1 °F 51.1 °F 39% 29.87 in 10.0 mi NW 11.5 mph 19.6 mph N/A   Clear
11:53 AM 80.1 °F 51.1 °F 36% 29.88 in 10.0 mi West 9.2 mph - N/A   Clear
12:53 PM 81.0 °F 51.1 °F 35% 29.88 in 10.0 mi West 5.8 mph - N/A   Clear
1:53 PM 82.0 °F 48.9 °F 31% 29.87 in 10.0 mi WNW 13.8 mph 25.3 mph N/A   Clear
2:53 PM 84.0 °F 46.9 °F 27% 29.87 in 10.0 mi WNW 17.3 mph 27.6 mph N/A   Clear
3:53 PM 84.9 °F 46.9 °F 27% 29.87 in 10.0 mi WNW 16.1 mph 24.2 mph N/A   Clear
4:53 PM 84.9 °F 46.9 °F 27% 29.88 in 10.0 mi NW 10.4 mph 21.9 mph N/A   Clear
5:53 PM 82.9 °F 46.9 °F 28% 29.89 in 10.0 mi NW 9.2 mph 19.6 mph N/A   Partly Cloudy
6:53 PM 80.1 °F 48.0 °F 32% 29.90 in 10.0 mi NW 9.2 mph - N/A   Partly Cloudy
7:53 PM 77.0 °F 51.1 °F 40% 29.90 in 10.0 mi NNW 9.2 mph - N/A   Clear
8:53 PM 75.9 °F 48.9 °F 38% 29.92 in 10.0 mi NNW 8.1 mph - N/A   Clear
9:53 PM 72.0 °F 54.0 °F 53% 29.97 in 10.0 mi NW 5.8 mph - 0.00 in Rain Light Rain
10:53 PM 72.0 °F 53.1 °F 51% 29.97 in 10.0 mi West 3.5 mph - 0.00 in   Scattered Clouds
11:53 PM 69.1 °F 53.1 °F 57% 29.99 in 10.0 mi WNW 4.6 mph - N/A   Scattered Clouds